Location: Lone Pine Community Mobile Home Park
(42.7367°N, 73.8567°W)
Time: 04:05:42
(UTC+00:00)

SL-4 R/B - Pass Details

Date: 29 October 2020
Orbit: 427 x 665 km, 51.6° (Epoch: 29 November)

Event Time Altitude Azimuth Distance (km) Brightness Sun altitude
Rises 22:14:30 0° 298° (WNW) 2,418 6.1 -4.9°
Reaches altitude 10° 22:16:58 10° 317° (NW) 1,572 4.8 -5.4°
Maximum altitude 22:19:40 20° 7° (N) 1,117 3.4 -5.8°
Drops below altitude 10° 22:22:28 10° 56° (ENE) 1,645 3.9 -6.4°
Enters shadow 22:23:07 - 62° (ENE) 1,851 4.1 -6.5°
